,,Stat5,,Stat1,,Stat2,,Stat3,,Stat4,,Wind1,,Wind1,
time,status,PA1M_AVG,status,PR1M_SUM,status,RH1M_AVG,status,SR1M_AVG,status,TA1M_AVG,status,W1dAve1m,status,W1sAve1m,
2001-07-18, 00:00:00,VALID,918.465,VALID,0,VALID,94.7994,VALID,-0.0679233,VALID,19.4846,VALID,73,VALID,0.271176,
2001-07-18, 00:01:00,VALID,918.457,VALID,0,VALID,94.999,VALID,-0.101885,VALID,19.4622,VALID,102,VALID,0.354968,
2001-07-18, 00:02:00,VALID,918.437,VALID,0,VALID,95.1821,VALID,-0.0679233,VALID,19.4585,VALID,109,VALID,0.172276,
2001-07-18, 00:03:00,VALID,918.427,VALID,0,VALID,95.0613,VALID,-0.101885,VALID,19.4587,VALID,109,VALID,0.239183,
2001-07-18, 00:04:00,VALID,918.431,VALID,0,VALID,95.055,VALID,-0.101885,VALID,19.4227,VALID,109,VALID,0.0639391,
2001-07-18, 00:05:00,VALID,918.447,VALID,0,VALID,95.0995,VALID,-0.101885,VALID,19.4103,VALID,109,VALID,0,
2001-07-18, 00:06:00,VALID,918.453,VALID,0,VALID,95.0575,VALID,-0.118866,VALID,19.3949,VALID,109,VALID,0,
2001-07-18, 00:07:00,VALID,918.433,VALID,0,VALID,94.966,VALID,-0.101885,VALID,19.372,VALID,109,VALID,0,
2001-07-18, 00:08:00,VALID,918.418,VALID,0,VALID,94.8337,VALID,-0.0849042,VALID,19.3429,VALID,109,VALID,0,
2001-07-18, 00:09:00,VALID,918.399,VALID,0,VALID,94.6824,VALID,-0.101885,VALID,19.294,VALID,109,VALID,0,
2001-07-18, 00:10:00,VALID,918.371,VALID,0,VALID,94.732,VALID,-0.0849042,VALID,19.2652,VALID,109,VALID,0,
2001-07-18, 00:11:00,VALID,918.359,VALID,0,VALID,95.2152,VALID,0,VALID,19.2414,VALID,109,VALID,0,
2001-07-18, 00:12:00,VALID,918.347,VALID,0,VALID,95.4212,VALID,-0.0169808,VALID,19.2419,VALID,109,VALID,0,
2001-07-18, 00:13:00,VALID,918.333,VALID,0,VALID,95.2648,VALID,0,VALID,19.2063,VALID,109,VALID,0.00105574,
2001-07-18, 00:14:00,VALID,918.336,VALID,0,VALID,95.2534,VALID,0,VALID,19.1706,VALID,106,VALID,0.0747768,
2001-07-18, 00:15:00,VALID,918.339,VALID,0,VALID,95.1669,VALID,0,VALID,19.1385,VALID,102,VALID,0.195107,
2001-07-18, 00:16:00,VALID,918.349,VALID,0,VALID,95.1796,VALID,0,VALID,19.0866,VALID,102,VALID,0.0276605,
2001-07-18, 00:17:00,VALID,918.351,VALID,0,VALID,95.2521,VALID,0,VALID,19.0541,VALID,83,VALID,0.125,
2001-07-18, 00:18:00,VALID,918.34,VALID,0,VALID,95.2508,VALID,0,VALID,19.019,VALID,62,VALID,0.286719,
2001-07-18, 00:19:00,VALID,918.334,VALID,0,VALID,95.2406,VALID,0,VALID,18.9637,VALID,52,VALID,0.469161,
2001-07-18, 00:20:00,VALID,918.322,VALID,0,VALID,95.4365,VALID,0,VALID,18.9286,VALID,43,VALID,0.582031,
2001-07-18, 00:21:00,VALID,918.321,VALID,0,VALID,95.6361,VALID,0,VALID,18.8966,VALID,23,VALID,0.595703,
2001-07-18, 00:22:00,VALID,918.314,VALID,0,VALID,95.6819,VALID,-0.0169808,VALID,18.8317,VALID,13,VALID,0.773037,
2001-07-18, 00:23:00,VALID,918.305,VALID,0,VALID,96.0685,VALID,-0.0339617,VALID,18.8096,VALID,10,VALID,0.786607,
2001-07-18, 00:24:00,VALID,918.305,VALID,0,VALID,96.3431,VALID,0,VALID,18.8126,VALID,12,VALID,0.883594,
2001-07-18, 00:25:00,VALID,918.282,VALID,0,VALID,96.3724,VALID,0,VALID,18.8645,VALID,12,VALID,0.741536,
2001-07-18, 00:26:00,VALID,918.268,VALID,0,VALID,96.1524,VALID,0,VALID,18.8998,VALID,13,VALID,0.669488,
2001-07-18, 00:27:00,VALID,918.273,VALID,0,VALID,95.9985,VALID,0,VALID,18.9194,VALID,16,VALID,0.677684,
2001-07-18, 00:28:00,VALID,918.269,VALID,0,VALID,95.8307,VALID,0.0679233,VALID,18.9503,VALID,33,VALID,0.665039,
2001-07-18, 00:29:00,VALID,918.258,VALID,0,VALID,95.7849,VALID,0.101885,VALID,18.9699,VALID,35,VALID,0.654194,
2001-07-18, 00:30:00,VALID,918.26,VALID,0,VALID,95.6755,VALID,0.0849042,VALID,18.9922,VALID,31,VALID,0.554265,
2001-07-18, 00:31:00,VALID,918.264,VALID,0,VALID,95.2445,VALID,0.0849042,VALID,18.9918,VALID,24,VALID,0.458116,
2001-07-18, 00:32:00,VALID,918.258,VALID,0,VALID,94.8375,VALID,0.0679233,VALID,18.957,VALID,18,VALID,0.424409,
2001-07-18, 00:33:00,VALID,918.253,VALID,0,VALID,95.2737,VALID,0.0849042,VALID,18.9244,VALID,356,VALID,0.466077,
2001-07-18, 00:34:00,VALID,918.25,VALID,0,VALID,95.804,VALID,0.0849042,VALID,18.9699,VALID,326,VALID,0.232973,
2001-07-18, 00:35:00,VALID,918.241,VALID,0,VALID,96.0939,VALID,0.0849042,VALID,18.9957,VALID,235,VALID,0.290064,
2001-07-18, 00:36:00,VALID,918.234,VALID,0,VALID,96.2376,VALID,0.0849042,VALID,19.0409,VALID,239,VALID,0.430743,
2001-07-18, 00:37:00,VALID,918.224,VALID,0,VALID,96.3622,VALID,0.0679233,VALID,19.1117,VALID,255,VALID,0.351563,
2001-07-18, 00:38:00,VALID,918.204,VALID,0,VALID,96.3012,VALID,0.0849042,VALID,19.1569,VALID,240,VALID,0.45012,
2001-07-18, 00:39:00,VALID,918.195,VALID,0,VALID,96.3355,VALID,0.101885,VALID,19.186,VALID,238,VALID,0.325721,
2001-07-18, 00:40:00,VALID,918.184,VALID,0,VALID,96.3279,VALID,0.0849042,VALID,19.222,VALID,239,VALID,0.26011,
2001-07-18, 00:41:00,VALID,918.174,VALID,0,VALID,96.221,VALID,0.101885,VALID,19.2314,VALID,239,VALID,0.186883,
2001-07-18, 00:42:00,VALID,918.159,VALID,0,VALID,96.0735,VALID,0.101885,VALID,19.221,VALID,239,VALID,0,
2001-07-18, 00:43:00,VALID,918.16,VALID,0,VALID,95.7518,VALID,0,VALID,19.2066,VALID,239,VALID,0,
2001-07-18, 00:44:00,VALID,918.12,VALID,0,VALID,95.1478,VALID,0,VALID,19.142,VALID,239,VALID,0,
2001-07-18, 00:45:00,VALID,918.106,VALID,0,VALID,94.6913,VALID,0,VALID,19.065,VALID,239,VALID,0,
2001-07-18, 00:46:00,VALID,918.11,VALID,0,VALID,94.7892,VALID,-0.0169808,VALID,19.0297,VALID,302,VALID,0.142314,
2001-07-18, 00:47:00,VALID,918.105,VALID,0,VALID,94.9749,VALID,-0.0509425,VALID,19.0034,VALID,21,VALID,0.139062,
2001-07-18, 00:48:00,VALID,918.104,VALID,0,VALID,94.9215,VALID,-0.0169808,VALID,18.9718,VALID,21,VALID,0.0332589,
2001-07-18, 00:49:00,VALID,918.093,VALID,0,VALID,95.0308,VALID,-0.101885,VALID,18.9296,VALID,21,VALID,0.00123355,
2001-07-18, 00:50:00,VALID,918.092,VALID,0,VALID,95.0563,VALID,-0.0679233,VALID,18.897,VALID,21,VALID,0.0130208,
2001-07-18, 00:51:00,VALID,918.077,VALID,0,VALID,95.0041,VALID,-0.0679233,VALID,18.8682,VALID,21,VALID,0.0539063,
2001-07-18, 00:52:00,VALID,918.075,VALID,0,VALID,95.2712,VALID,-0.0169808,VALID,18.8553,VALID,20,VALID,0.00370066,
2001-07-18, 00:53:00,VALID,918.062,VALID,0,VALID,95.425,VALID,-0.0339617,VALID,18.8525,VALID,20,VALID,0,
2001-07-18, 00:54:00,VALID,918.053,VALID,0,VALID,95.4479,VALID,-0.0509425,VALID,18.8332,VALID,20,VALID,0,
2001-07-18, 00:55:00,VALID,918.028,VALID,0,VALID,95.4441,VALID,-0.0339617,VALID,18.8237,VALID,20,VALID,0,
2001-07-18, 00:56:00,VALID,918.021,VALID,0,VALID,95.5814,VALID,0,VALID,18.8069,VALID,20,VALID,0,
2001-07-18, 00:57:00,VALID,918.012,VALID,0,VALID,95.7963,VALID,-0.0679233,VALID,18.8135,VALID,20,VALID,0,
2001-07-18, 00:58:00,VALID,917.981,VALID,0,VALID,95.8663,VALID,0.0169808,VALID,18.8156,VALID,20,VALID,0,
2001-07-18, 00:59:00,VALID,917.948,VALID,0,VALID,95.9324,VALID,0.0679233,VALID,18.8089,VALID,20,VALID,0,
2001-07-18, 01:00:00,VALID,917.927,VALID,0,VALID,95.9985,VALID,0.0849042,VALID,18.7898,VALID,33,VALID,0.0796441,
2001-07-18, 01:01:00,VALID,917.889,VALID,0,VALID,96.0646,VALID,0.0679233,VALID,18.7768,VALID,97,VALID,0.408573,
2001-07-18, 01:02:00,VALID,917.857,VALID,0,VALID,96.0901,VALID,0.0679233,VALID,18.7475,VALID,106,VALID,0.432566,
2001-07-18, 01:03:00,VALID,917.816,VALID,0,VALID,95.9985,VALID,0.0679233,VALID,18.7282,VALID,107,VALID,0.379856,
2001-07-18, 01:04:00,VALID,917.795,VALID,0,VALID,95.8892,VALID,0.0679233,VALID,18.7058,VALID,108,VALID,0.151394,
2001-07-18, 01:05:00,VALID,917.762,VALID,0,VALID,95.7582,VALID,0.0339617,VALID,18.6696,VALID,108,VALID,0,
2001-07-18, 01:06:00,VALID,917.732,VALID,0,VALID,95.6565,VALID,0.101885,VALID,18.6408,VALID,108,VALID,0,
2001-07-18, 01:07:00,VALID,917.714,VALID,0,VALID,95.542,VALID,0.0849042,VALID,18.6251,VALID,110,VALID,0,
2001-07-18, 01:08:00,VALID,917.719,VALID,0,VALID,95.5191,VALID,0.0849042,VALID,18.5893,VALID,107,VALID,0,
2001-07-18, 01:09:00,VALID,917.7,VALID,0,VALID,95.6577,VALID,0.0339617,VALID,18.5704,VALID,105,VALID,0,
2001-07-18, 01:10:00,VALID,917.729,VALID,0,VALID,95.8383,VALID,-0.0169808,VALID,18.5778,VALID,94,VALID,0,
2001-07-18, 01:11:00,VALID,917.725,VALID,0,VALID,95.7582,VALID,-0.0169808,VALID,18.5681,VALID,88,VALID,0,
2001-07-18, 01:12:00,VALID,917.732,VALID,0,VALID,95.8993,VALID,-0.0339617,VALID,18.5656,VALID,92,VALID,0.594727,
2001-07-18, 01:13:00,VALID,917.742,VALID,0,VALID,95.7213,VALID,0,VALID,18.5538,VALID,96,VALID,0.910857,
2001-07-18, 01:14:00,VALID,917.734,VALID,0,VALID,95.6323,VALID,0.0169808,VALID,18.5605,VALID,98,VALID,0.90692,
2001-07-18, 01:15:00,VALID,917.726,VALID,0,VALID,95.5344,VALID,0,VALID,18.5801,VALID,96,VALID,0.693164,
2001-07-18, 01:16:00,VALID,917.716,VALID,0,VALID,95.0385,VALID,0,VALID,18.5831,VALID,82,VALID,0.431424,
2001-07-18, 01:17:00,VALID,917.7,VALID,0,VALID,94.7549,VALID,0.0169808,VALID,18.561,VALID,82,VALID,0.367188,
2001-07-18, 01:18:00,VALID,917.698,VALID,0,VALID,94.6252,VALID,0,VALID,18.5285,VALID,82,VALID,0.288261,
2001-07-18, 01:19:00,VALID,917.7,VALID,0,VALID,94.6226,VALID,0,VALID,18.4738,VALID,82,VALID,0.394942,
2001-07-18, 01:20:00,VALID,917.688,VALID,0,VALID,95.1491,VALID,0,VALID,18.4351,VALID,82,VALID,0.544613,
2001-07-18, 01:21:00,VALID,917.673,VALID,0,VALID,95.5217,VALID,0.0169808,VALID,18.471,VALID,82,VALID,0.620988,
2001-07-18, 01:22:00,VALID,917.687,VALID,0,VALID,95.2572,VALID,0,VALID,18.513,VALID,82,VALID,0.621094,
2001-07-18, 01:23:00,VALID,917.676,VALID,0,VALID,94.9253,VALID,0.0169808,VALID,18.5153,VALID,82,VALID,0.580236,
2001-07-18, 01:24:00,VALID,917.662,VALID,0,VALID,94.7562,VALID,-0.0169808,VALID,18.5545,VALID,84,VALID,0.643709,
2001-07-18, 01:25:00,VALID,917.655,VALID,0,VALID,94.4357,VALID,0.0339617,VALID,18.587,VALID,85,VALID,0.542268,
2001-07-18, 01:26:00,VALID,917.649,VALID,0,VALID,94.1636,VALID,0.0169808,VALID,18.5642,VALID,85,VALID,0.61238,
2001-07-18, 01:27:00,VALID,917.633,VALID,0,VALID,94.395,VALID,0,VALID,18.5515,VALID,96,VALID,0.736275,
2001-07-18, 01:28:00,VALID,917.615,VALID,0,VALID,94.5184,VALID,-0.0849042,VALID,18.5232,VALID,109,VALID,0.74486,
2001-07-18, 01:29:00,VALID,917.607,VALID,0,VALID,94.5705,VALID,-0.101885,VALID,18.5271,VALID,116,VALID,0.752604,
2001-07-18, 01:30:00,VALID,917.593,VALID,0,VALID,94.6341,VALID,-0.101885,VALID,18.5082,VALID,127,VALID,0.689704,
2001-07-18, 01:31:00,VALID,917.571,VALID,0,VALID,94.7523,VALID,-0.0849042,VALID,18.4978,VALID,128,VALID,0.629136,
2001-07-18, 01:32:00,VALID,917.555,VALID,0,VALID,94.7651,VALID,-0.101885,VALID,18.4844,VALID,136,VALID,0.73972,
2001-07-18, 01:33:00,VALID,917.525,VALID,0,VALID,94.7651,VALID,-0.118866,VALID,18.472,VALID,147,VALID,0.746622,
2001-07-18, 01:34:00,VALID,917.508,VALID,0,VALID,95.0321,VALID,-0.101885,VALID,18.4528,VALID,155,VALID,0.58724,
2001-07-18, 01:35:00,VALID,917.502,VALID,0,VALID,95.7175,VALID,-0.101885,VALID,18.433,VALID,157,VALID,0.797092,
2001-07-18, 01:36:00,VALID,917.468,VALID,0,VALID,96.2325,VALID,-0.101885,VALID,18.4431,VALID,156,VALID,0.871299,
2001-07-18, 01:37:00,VALID,917.444,VALID,0,VALID,96.5733,VALID,-0.101885,VALID,18.4464,VALID,151,VALID,0.848184,
2001-07-18, 01:38:00,VALID,917.397,VALID,0,VALID,96.8696,VALID,-0.101885,VALID,18.427,VALID,150,VALID,0.667411,
2001-07-18, 01:39:00,VALID,917.369,VALID,0,VALID,97.1099,VALID,-0.101885,VALID,18.4341,VALID,148,VALID,0.399777,
2001-07-18, 01:40:00,VALID,917.352,VALID,0,VALID,97.1201,VALID,-0.101885,VALID,18.3915,VALID,146,VALID,0.264597,
2001-07-18, 01:41:00,VALID,917.318,VALID,0,VALID,97.0896,VALID,-0.118866,VALID,18.3629,VALID,149,VALID,0.42528,
2001-07-18, 01:42:00,VALID,917.287,VALID,0,VALID,97.2587,VALID,-0.118866,VALID,18.3366,VALID,154,VALID,0.25332,
2001-07-18, 01:43:00,VALID,917.247,VALID,0,VALID,97.3795,VALID,-0.0169808,VALID,18.3327,VALID,154,VALID,0.176192,
2001-07-18, 01:44:00,VALID,917.225,VALID,0,VALID,97.3248,VALID,0,VALID,18.2932,VALID,154,VALID,0.0684122,
2001-07-18, 01:45:00,VALID,917.193,VALID,0,VALID,97.0145,VALID,0,VALID,18.206,VALID,154,VALID,0.0078125,
2001-07-18, 01:46:00,VALID,917.179,VALID,0,VALID,97.0209,VALID,0,VALID,18.1447,VALID,154,VALID,0.0146234,
2001-07-18, 01:47:00,VALID,917.161,VALID,0,VALID,97.1544,VALID,0,VALID,18.1325,VALID,154,VALID,0,
2001-07-18, 01:48:00,VALID,917.132,VALID,0,VALID,97.1951,VALID,-0.0169808,VALID,18.1133,VALID,154,VALID,0,
2001-07-18, 01:49:00,VALID,917.123,VALID,0,VALID,97.2905,VALID,0,VALID,18.1166,VALID,154,VALID,0,
2001-07-18, 01:50:00,VALID,917.104,VALID,0,VALID,97.3998,VALID,-0.0169808,VALID,18.1228,VALID,154,VALID,0,
2001-07-18, 01:51:00,VALID,917.098,VALID,0,VALID,97.3591,VALID,0,VALID,18.1131,VALID,154,VALID,0,
2001-07-18, 01:52:00,VALID,917.09,VALID,0,VALID,97.4672,VALID,0,VALID,18.1352,VALID,154,VALID,0.0489865,
2001-07-18, 01:53:00,VALID,917.091,VALID,0,VALID,97.5003,VALID,0.0169808,VALID,18.1712,VALID,154,VALID,0.113281,
2001-07-18, 01:54:00,VALID,917.086,VALID,0,VALID,97.4164,VALID,0,VALID,18.1901,VALID,154,VALID,0.0872044,
2001-07-18, 01:55:00,VALID,917.081,VALID,0,VALID,97.2803,VALID,-0.0339617,VALID,18.2037,VALID,155,VALID,0.0572213,
2001-07-18, 01:56:00,VALID,917.077,VALID,0,VALID,97.1137,VALID,0,VALID,18.2033,VALID,155,VALID,0,
2001-07-18, 01:57:00,VALID,917.056,VALID,0,VALID,97.0094,VALID,-0.0169808,VALID,18.2259,VALID,171,VALID,0.102385,
2001-07-18, 01:58:00,VALID,917.045,VALID,0,VALID,96.8047,VALID,-0.0169808,VALID,18.281,VALID,213,VALID,0.299198,
2001-07-18, 01:59:00,VALID,917.026,VALID,0,VALID,96.4436,VALID,0,VALID,18.3423,VALID,214,VALID,0.0666921,
2001-07-18, 02:00:00,VALID,916.996,VALID,0,VALID,95.9171,VALID,0,VALID,18.3555,VALID,214,VALID,0,
2001-07-18, 02:01:00,VALID,916.989,VALID,0,VALID,95.6374,VALID,0,VALID,18.3324,VALID,188,VALID,0.0328947,
2001-07-18, 02:02:00,VALID,916.966,VALID,0,VALID,95.6768,VALID,-0.0509425,VALID,18.3165,VALID,167,VALID,0.36616,
2001-07-18, 02:03:00,VALID,916.95,VALID,0,VALID,95.9031,VALID,-0.0169808,VALID,18.3038,VALID,167,VALID,0.116797,
2001-07-18, 02:04:00,VALID,916.935,VALID,0,VALID,96.0189,VALID,-0.0169808,VALID,18.2944,VALID,167,VALID,0,
2001-07-18, 02:05:00,VALID,916.938,VALID,0,VALID,95.8243,VALID,-0.0509425,VALID,18.2782,VALID,167,VALID,0.000892857,
2001-07-18, 02:06:00,VALID,916.938,VALID,0,VALID,95.8357,VALID,-0.0169808,VALID,18.2554,VALID,167,VALID,0.00078125,
2001-07-18, 02:07:00,VALID,916.933,VALID,0,VALID,96.0812,VALID,0.0169808,VALID,18.2388,VALID,167,VALID,0.00368924,
2001-07-18, 02:08:00,VALID,916.943,VALID,0,VALID,96.1956,VALID,0,VALID,18.2226,VALID,167,VALID,0.147569,
2001-07-18, 02:09:00,VALID,916.963,VALID,0,VALID,96.0977,VALID,-0.0339617,VALID,18.2261,VALID,143,VALID,0.28746,
2001-07-18, 02:10:00,VALID,916.986,VALID,0,VALID,95.7696,VALID,-0.0169808,VALID,18.1814,VALID,108,VALID,0.507607,
2001-07-18, 02:11:00,VALID,917,VALID,0,VALID,95.8523,VALID,0,VALID,18.1069,VALID,86,VALID,0.761513,
2001-07-18, 02:12:00,VALID,917.013,VALID,0,VALID,96.6013,VALID,-0.0339617,VALID,18.094,VALID,78,VALID,0.790329,
2001-07-18, 02:13:00,VALID,917.038,VALID,0,VALID,96.188,VALID,0.0339617,VALID,18.0584,VALID,60,VALID,0.946398,
2001-07-18, 02:14:00,VALID,917.047,VALID,0,VALID,96.2668,VALID,0.0339617,VALID,18.0036,VALID,61,VALID,0.803421,
2001-07-18, 02:15:00,VALID,917.044,VALID,0,VALID,96.4092,VALID,0.0169808,VALID,17.971,VALID,61,VALID,0.583265,
2001-07-18, 02:16:00,VALID,917.015,VALID,0,VALID,96.7208,VALID,0,VALID,17.9683,VALID,90,VALID,0.351563,
2001-07-18, 02:17:00,VALID,916.974,VALID,0,VALID,96.9573,VALID,0.0509425,VALID,17.9743,VALID,133,VALID,0.525641,
2001-07-18, 02:18:00,VALID,916.935,VALID,0,VALID,97.0056,VALID,0.0509425,VALID,17.9904,VALID,142,VALID,0.53674,
2001-07-18, 02:19:00,VALID,916.9,VALID,0,VALID,96.9624,VALID,0.0169808,VALID,17.9807,VALID,158,VALID,0.692229,
2001-07-18, 02:20:00,VALID,916.873,VALID,0,VALID,96.806,VALID,0.0679233,VALID,17.9551,VALID,142,VALID,0.948918,
2001-07-18, 02:21:00,VALID,916.88,VALID,0,VALID,96.909,VALID,0.0679233,VALID,17.9388,VALID,145,VALID,1.07232,
2001-07-18, 02:22:00,VALID,916.863,VALID,0,VALID,97.3947,VALID,0.0849042,VALID,17.9611,VALID,145,VALID,0.920037,
2001-07-18, 02:23:00,VALID,916.876,VALID,0,VALID,97.869,VALID,0.0339617,VALID,18.0096,VALID,139,VALID,1.16303,
2001-07-18, 02:24:00,VALID,916.875,VALID,0,VALID,98.2162,VALID,0.0509425,VALID,18.1006,VALID,135,VALID,0.981841,
2001-07-18, 02:25:00,VALID,916.876,VALID,0,VALID,98.2721,VALID,0.0679233,VALID,18.1163,VALID,100,VALID,0.637587,
2001-07-18, 02:26:00,VALID,916.882,VALID,0,VALID,98.1157,VALID,0.0339617,VALID,18.084,VALID,88,VALID,0.718316,
2001-07-18, 02:27:00,VALID,916.884,VALID,0,VALID,98.0115,VALID,0.0169808,VALID,18.0234,VALID,81,VALID,0.802015,
2001-07-18, 02:28:00,VALID,916.887,VALID,0,VALID,98.0941,VALID,0.0169808,VALID,17.9648,VALID,72,VALID,0.795819,
2001-07-18, 02:29:00,VALID,916.887,VALID,0,VALID,98.3065,VALID,0.0339617,VALID,17.978,VALID,76,VALID,0.917411,
2001-07-18, 02:30:00,VALID,916.885,VALID,0,VALID,98.5265,VALID,0.0339617,VALID,18.0232,VALID,83,VALID,1.07121,
2001-07-18, 02:31:00,VALID,916.887,VALID,0,VALID,98.5659,VALID,0.0169808,VALID,18.0455,VALID,76,VALID,0.871094,
2001-07-18, 02:32:00,VALID,916.882,VALID,0,VALID,98.5366,VALID,0.0849042,VALID,18.0192,VALID,76,VALID,0.633614,
2001-07-18, 02:33:00,VALID,916.865,VALID,0,VALID,98.6028,VALID,0.0339617,VALID,18.013,VALID,112,VALID,0.936133,
2001-07-18, 02:34:00,VALID,916.847,VALID,0,VALID,98.8011,VALID,0.0509425,VALID,18.0679,VALID,128,VALID,1.05674,
2001-07-18, 02:35:00,VALID,916.804,VALID,0,VALID,98.8698,VALID,0.0509425,VALID,18.1096,VALID,129,VALID,1.25612,
2001-07-18, 02:36:00,VALID,916.773,VALID,0,VALID,98.8227,VALID,0.0169808,VALID,18.1426,VALID,128,VALID,1.00501,
2001-07-18, 02:37:00,VALID,916.734,VALID,0,VALID,98.8469,VALID,0.0679233,VALID,18.1456,VALID,132,VALID,1.15545,
2001-07-18, 02:38:00,VALID,916.707,VALID,0,VALID,98.8545,VALID,0.0509425,VALID,18.1488,VALID,140,VALID,1.05248,
2001-07-18, 02:39:00,VALID,916.697,VALID,0,VALID,98.8863,VALID,0.0679233,VALID,18.1486,VALID,138,VALID,1.11808,
2001-07-18, 02:40:00,VALID,916.686,VALID,0,VALID,98.9919,VALID,0.0679233,VALID,18.2005,VALID,134,VALID,1.30332,
2001-07-18, 02:41:00,VALID,916.67,VALID,0,VALID,99.0109,VALID,0.0169808,VALID,18.239,VALID,123,VALID,1.2092,
2001-07-18, 02:42:00,VALID,916.66,VALID,0,VALID,98.997,VALID,0.0509425,VALID,18.2452,VALID,118,VALID,1.39779,
2001-07-18, 02:43:00,VALID,916.652,VALID,0,VALID,98.9817,VALID,0.0509425,VALID,18.2425,VALID,120,VALID,1.30532,
2001-07-18, 02:44:00,VALID,916.629,VALID,0,VALID,98.9614,VALID,0.0679233,VALID,18.2261,VALID,118,VALID,1.38631,
2001-07-18, 02:45:00,VALID,916.623,VALID,0,VALID,98.9842,VALID,0.0509425,VALID,18.2293,VALID,131,VALID,0.934333,
2001-07-18, 02:46:00,VALID,916.594,VALID,0,VALID,98.9944,VALID,0.0169808,VALID,18.2132,VALID,130,VALID,0.875845,
2001-07-18, 02:47:00,VALID,916.579,VALID,0,VALID,99.0097,VALID,0.0509425,VALID,18.2035,VALID,116,VALID,1.14085,
2001-07-18, 02:48:00,VALID,916.565,VALID,0,VALID,99.0402,VALID,0,VALID,18.2065,VALID,118,VALID,1.21834,
2001-07-18, 02:49:00,VALID,916.548,VALID,0,VALID,99.0415,VALID,0.0339617,VALID,18.2005,VALID,120,VALID,0.974451,
2001-07-18, 02:50:00,VALID,916.535,VALID,0,VALID,99.0733,VALID,0.0509425,VALID,18.197,VALID,117,VALID,0.910442,
2001-07-18, 02:51:00,VALID,916.516,VALID,0,VALID,99.0796,VALID,0.0339617,VALID,18.2102,VALID,127,VALID,0.973047,
2001-07-18, 02:52:00,VALID,916.51,VALID,0,VALID,99.0847,VALID,0.0169808,VALID,18.2164,VALID,128,VALID,0.603207,
2001-07-18, 02:53:00,VALID,916.509,VALID,0,VALID,99.1165,VALID,0.0169808,VALID,18.2296,VALID,135,VALID,0.955592,
2001-07-18, 02:54:00,VALID,916.514,VALID,0,VALID,99.133,VALID,0.0509425,VALID,18.2515,VALID,138,VALID,1.06094,
2001-07-18, 02:55:00,VALID,916.503,VALID,0,VALID,99.1305,VALID,0.0509425,VALID,18.2579,VALID,137,VALID,1.33333,
2001-07-18, 02:56:00,VALID,916.502,VALID,0,VALID,99.1279,VALID,0.0679233,VALID,18.2743,VALID,140,VALID,1.05982,
2001-07-18, 02:57:00,VALID,916.498,VALID,0,VALID,99.1203,VALID,0,VALID,18.284,VALID,129,VALID,1.06406,
2001-07-18, 02:58:00,VALID,916.494,VALID,0,VALID,99.1267,VALID,0.0509425,VALID,18.2971,VALID,112,VALID,1.16428,
2001-07-18, 02:59:00,VALID,916.482,VALID,0,VALID,99.0885,VALID,0.0679233,VALID,18.3004,VALID,88,VALID,1.01454,
2001-07-18, 03:00:00,VALID,916.465,VALID,0,VALID,99.0542,VALID,0.0339617,VALID,18.2845,VALID,89,VALID,0.779247,
2001-07-18, 03:01:00,VALID,916.457,VALID,0,VALID,99.0605,VALID,0.0339617,VALID,18.2706,VALID,68,VALID,0.587377,
2001-07-18, 03:02:00,VALID,916.449,VALID,0,VALID,99.0224,VALID,0.0509425,VALID,18.2646,VALID,86,VALID,0.628906,
2001-07-18, 03:03:00,VALID,916.427,VALID,0,VALID,99.0644,VALID,0.0849042,VALID,18.284,VALID,94,VALID,0.912796,
2001-07-18, 03:04:00,VALID,916.417,VALID,0,VALID,99.0491,VALID,0.0849042,VALID,18.323,VALID,95,VALID,0.816189,
2001-07-18, 03:05:00,VALID,916.42,VALID,0,VALID,98.9931,VALID,0.0509425,VALID,18.3227,VALID,90,VALID,0.788218,
2001-07-18, 03:06:00,VALID,916.435,VALID,0,VALID,98.9715,VALID,0.0509425,VALID,18.3126,VALID,89,VALID,0.777344,
2001-07-18, 03:07:00,VALID,916.456,VALID,0,VALID,98.9385,VALID,0.0509425,VALID,18.3163,VALID,87,VALID,0.603766,
2001-07-18, 03:08:00,VALID,916.476,VALID,0,VALID,98.8952,VALID,0.0339617,VALID,18.3131,VALID,85,VALID,0.567508,
2001-07-18, 03:09:00,VALID,916.5,VALID,0,VALID,98.8634,VALID,0.0849042,VALID,18.3034,VALID,78,VALID,0.595439,
2001-07-18, 03:10:00,VALID,916.51,VALID,0,VALID,98.81,VALID,0.0679233,VALID,18.287,VALID,86,VALID,0.665296,
2001-07-18, 03:11:00,VALID,916.529,VALID,0,VALID,98.7833,VALID,0.101885,VALID,18.2833,VALID,85,VALID,0.676683,
2001-07-18, 03:12:00,VALID,916.527,VALID,0,VALID,98.7515,VALID,0.0509425,VALID,18.284,VALID,102,VALID,0.836739,
2001-07-18, 03:13:00,VALID,916.509,VALID,0,VALID,98.7159,VALID,-0.0169808,VALID,18.2939,VALID,112,VALID,0.920956,
2001-07-18, 03:14:00,VALID,916.489,VALID,0,VALID,98.6829,VALID,0,VALID,18.3004,VALID,114,VALID,0.728207,
2001-07-18, 03:15:00,VALID,916.469,VALID,0,VALID,98.6129,VALID,0,VALID,18.3001,VALID,139,VALID,0.61212,
2001-07-18, 03:16:00,VALID,916.455,VALID,0,VALID,98.5061,VALID,0,VALID,18.3006,VALID,144,VALID,0.953776,
2001-07-18, 03:17:00,VALID,916.449,VALID,0,VALID,98.4921,VALID,0,VALID,18.3038,VALID,148,VALID,0.893012,
2001-07-18, 03:18:00,VALID,916.439,VALID,0,VALID,98.4883,VALID,0.0169808,VALID,18.3167,VALID,146,VALID,1.01789,
2001-07-18, 03:19:00,VALID,916.424,VALID,0,VALID,98.5023,VALID,0.0169808,VALID,18.3359,VALID,147,VALID,0.93011,
2001-07-18, 03:20:00,VALID,916.424,VALID,0,VALID,98.4921,VALID,0,VALID,18.3587,VALID,144,VALID,0.935045,
2001-07-18, 03:21:00,VALID,916.426,VALID,0,VALID,98.4858,VALID,0,VALID,18.3779,VALID,133,VALID,1.03817,
2001-07-18, 03:22:00,VALID,916.415,VALID,0,VALID,98.412,VALID,-0.0169808,VALID,18.4201,VALID,133,VALID,1.00206,
2001-07-18, 03:23:00,VALID,916.41,VALID,0,VALID,98.2976,VALID,0,VALID,18.4524,VALID,130,VALID,0.770433,
2001-07-18, 03:24:00,VALID,916.406,VALID,0,VALID,98.1869,VALID,0,VALID,18.4747,VALID,122,VALID,0.773047,
2001-07-18, 03:25:00,VALID,916.41,VALID,0,VALID,98.1005,VALID,0.0169808,VALID,18.5038,VALID,126,VALID,0.909128,
2001-07-18, 03:26:00,VALID,916.42,VALID,0,VALID,97.9657,VALID,0,VALID,18.5562,VALID,123,VALID,1.03062,
2001-07-18, 03:27:00,VALID,916.428,VALID,0,VALID,97.7673,VALID,-0.0169808,VALID,18.5748,VALID,127,VALID,0.744591,
2001-07-18, 03:28:00,VALID,916.44,VALID,0,VALID,97.5728,VALID,0,VALID,18.6106,VALID,151,VALID,0.616186,
2001-07-18, 03:29:00,VALID,916.452,VALID,0,VALID,97.4698,VALID,0.0169808,VALID,18.623,VALID,140,VALID,0.98117,
2001-07-18, 03:30:00,VALID,916.444,VALID,0,VALID,97.3223,VALID,0,VALID,18.6622,VALID,147,VALID,1.11897,
2001-07-18, 03:31:00,VALID,916.456,VALID,0,VALID,97.1163,VALID,0.0339617,VALID,18.6648,VALID,154,VALID,1.02539,
2001-07-18, 03:32:00,VALID,916.445,VALID,0,VALID,96.97,VALID,0.0169808,VALID,18.6747,VALID,151,VALID,0.912977,
2001-07-18, 03:33:00,VALID,916.439,VALID,0,VALID,96.9128,VALID,0,VALID,18.6652,VALID,143,VALID,0.970052,
2001-07-18, 03:34:00,VALID,916.45,VALID,0,VALID,96.9039,VALID,0,VALID,18.6585,VALID,142,VALID,0.993032,
2001-07-18, 03:35:00,VALID,916.468,VALID,0,VALID,96.9192,VALID,0,VALID,18.6521,VALID,147,VALID,0.903166,